Simultaneous Nadir Overpasses (SNOs) Predictions

Prediction of SNOs between GOES-16 and TERRA Satellite Orbit:

Table of predicted SNOs for the next 14.0 days since TLE Epoch: 3/25/2023
Index Date Time (GOES-16) GOES-16 Lat,Lon TERRA Lat,Lon Distance(km) Time Diff (sec)
1 03/25/2023 15:03:14 0.06, -75.20 -0.18, -73.93 143.38 80
2 03/26/2023 03:26:18 -0.06, -75.19 -0.85, -78.89 420.20 80
3 03/28/2023 03:07:33 -0.06, -75.20 0.01, -75.01 22.28 80
4 03/30/2023 02:51:26 -0.05, -75.21 0.79, -71.11 465.04 80
5 03/30/2023 15:11:42 0.05, -75.22 0.20, -76.04 93.51 80
6 04/01/2023 14:58:15 0.05, -75.23 -0.62, -72.15 350.81 80
7 04/02/2023 03:18:38 -0.05, -75.23 -0.42, -77.10 211.83 80
8 04/04/2023 02:59:50 -0.05, -75.26 0.38, -73.20 233.76 80
9 04/04/2023 15:20:05 0.05, -75.27 0.65, -78.12 324.32 80
10 04/06/2023 15:06:37 0.05, -75.30 -0.20, -74.23 122.39 80
11 04/07/2023 03:26:59 -0.05, -75.31 -0.87, -79.17 439.54 80
